San Antonio, TX

12:39 AM CST on February 21, 2017 (GMT -0600)
San Antonio International

Weather History for KSAT - October, 2012

Change the Weather History Date:

Friday, October 12, 2012

  Actual Average Record
Temperature  
Mean Temperature 80 °F 72 °F  
Max Temperature 86 °F 83 °F 99 °F (1991)
Min Temperature 73 °F 61 °F 41 °F (1946)
Degree Days  
Heating Degree Days 0 1  
Month to date heating degree days 15 1  
Since 1 July heating degree days 15 3  
Cooling Degree Days 15 8  
Month to date cooling degree days 98 108  
Year to date cooling degree days 3338 2942  
Growing Degree Days 30 (Base 50)    
Moisture  
Dew Point 71 °F    
Average Humidity 75    
Maximum Humidity 93    
Minimum Humidity 57    
Precipitation  
Precipitation 0.00 in 0.15 in 1.80 in (1986)
Month to date precipitation 0.74 1.55  
Year to date precipitation 37.10 25.52  
Snow  
Snow 0.00 in - - ()
Month to date snowfall 0.0  
Since 1 July snowfall 0.0  
Since 1 September snowfall 0.0  
Snow Depth 0.00 in    
Sea Level Pressure  
Sea Level Pressure 30.08 in    
Wind  
Wind Speed 11 mph (SE)    
Max Wind Speed 22 mph    
Max Gust Speed 26 mph    
Visibility 10 miles    
Events      
T = Trace of Precipitation, MM = Missing Value Source: NWS Daily Summary

Daily Weather History Graph

Daily Weather History Graph

Search for Another Location

Airport or City:

Trip Planner

Search our weather history database for the weather conditions in past years. The results will help you decide how hot, cold, wet, or windy it might be!

Date:

Astronomy

Oct. 12, 2012 Rise Set
Actual Time 7:33 AM CDT 7:06 PM CDT
Civil Twilight 7:09 AM CDT 7:30 PM CDT
Nautical Twilight 6:42 AM CDT 7:57 PM CDT
Astronomical Twilight 6:14 AM CDT 8:25 PM CDT
Moon 4:30 AM CDT (10/12) 5:07 PM CDT (10/12)
Length of Visible Light 12h 20m
Length of Day
11h 32m
Waning Crescent, 10% of the Moon is Illuminated
Oct 12
Waning Crescent
Oct 15
New
Oct 21
First Quarter
Oct 29
Full
Nov 6
Last Quarter

Hourly Weather History & Observations

Time (CDT) Temp. Heat Index Dew Point Humidity Pressure Visibility Wind Dir Wind Speed Gust Speed Precip Events Conditions
12:08 AM 73.4 °F - 71.6 °F 94% 30.13 in 10.0 mi SE 11.5 mph - N/A   Overcast
12:53 AM 73.9 °F - 72.0 °F 93% 30.08 in 10.0 mi SE 9.2 mph - N/A   Overcast
1:53 AM 73.9 °F - 72.0 °F 93% 30.08 in 10.0 mi SSE 5.8 mph - N/A   Overcast
2:53 AM 73.0 °F - 72.0 °F 96% 30.07 in 9.0 mi SE 6.9 mph - N/A   Overcast
3:53 AM 73.9 °F - 72.0 °F 93% 30.07 in 10.0 mi South 11.5 mph 18.4 mph N/A   Overcast
4:53 AM 73.0 °F - 72.0 °F 96% 30.07 in 10.0 mi South 10.4 mph - N/A   Overcast
5:53 AM 73.0 °F - 72.0 °F 96% 30.08 in 10.0 mi South 6.9 mph - N/A   Overcast
6:47 AM 73.4 °F - 71.6 °F 94% 30.13 in 10.0 mi SSE 10.4 mph - N/A   Mostly Cloudy
6:53 AM 73.0 °F - 72.0 °F 96% 30.09 in 10.0 mi SSE 8.1 mph - N/A   Mostly Cloudy
7:21 AM 73.4 °F - 71.6 °F 94% 30.14 in 9.0 mi South 8.1 mph - N/A   Overcast
7:53 AM 73.0 °F - 72.0 °F 96% 30.10 in 8.0 mi SSE 6.9 mph - N/A   Overcast
8:53 AM 75.2 °F - 71.6 °F 89% 30.16 in 10.0 mi SSE 9.2 mph - N/A   Mostly Cloudy
9:45 AM 75.2 °F - 71.6 °F 89% 30.18 in 10.0 mi SSE 10.4 mph - N/A   Overcast
9:53 AM 75.0 °F - 72.0 °F 90% 30.13 in 10.0 mi SSE 8.1 mph - N/A   Overcast
10:18 AM 77.0 °F - 71.6 °F 83% 30.18 in 8.0 mi SE 10.4 mph - N/A   Mostly Cloudy
10:53 AM 75.9 °F - 71.1 °F 85% 30.14 in 10.0 mi South 11.5 mph - N/A   Mostly Cloudy
11:53 AM 80.6 °F 84.6 °F 71.6 °F 74% 30.18 in 10.0 mi SSE 8.1 mph - N/A   Mostly Cloudy
12:53 PM 81.0 °F 84.9 °F 71.1 °F 72% 30.11 in 10.0 mi SSE 8.1 mph - N/A   Mostly Cloudy
1:53 PM 82.9 °F 87.5 °F 71.1 °F 67% 30.08 in 10.0 mi SE 8.1 mph - N/A   Mostly Cloudy
2:53 PM 84.0 °F 88.4 °F 70.0 °F 63% 30.04 in 10.0 mi SSE 6.9 mph - N/A   Scattered Clouds
3:53 PM 86.0 °F 90.1 °F 69.1 °F 57% 30.02 in 10.0 mi ESE 9.2 mph - N/A   Scattered Clouds
4:53 PM 84.2 °F 88.4 °F 69.8 °F 62% 30.07 in 10.0 mi SE 11.5 mph - N/A   Scattered Clouds
5:53 PM 84.0 °F 87.0 °F 68.0 °F 58% 30.00 in 10.0 mi SE 12.7 mph - N/A   Partly Cloudy
6:53 PM 82.0 °F 84.5 °F 66.9 °F 60% 30.01 in 10.0 mi ESE 8.1 mph - N/A   Scattered Clouds
7:53 PM 81.0 °F 84.1 °F 69.1 °F 67% 30.01 in 10.0 mi ESE 13.8 mph 19.6 mph N/A   Mostly Cloudy
8:53 PM 79.0 °F - 72.0 °F 79% 30.04 in 10.0 mi SE 16.1 mph 24.2 mph N/A   Overcast
9:53 PM 78.1 °F - 72.0 °F 81% 30.05 in 10.0 mi SE 18.4 mph 24.2 mph N/A   Mostly Cloudy
10:53 PM 75.9 °F - 72.0 °F 87% 30.06 in 10.0 mi SE 15.0 mph 21.9 mph N/A   Overcast
11:11 PM 75.2 °F - 71.6 °F 89% 30.12 in 10.0 mi SE 16.1 mph - N/A   Overcast
11:53 PM 75.9 °F - 72.0 °F 87% 30.06 in 10.0 mi SSE 18.4 mph - N/A   Overcast